Location: Newark
(38.6500°N, 6.7333°W)
Time: 19:59:09
(UTC+00:00)

Tiangong 2 - Visible Passes

Search period start: 18 March 2019 00:00
Search period end: 28 March 2019 00:00
Orbit: 379 x 390 km, 42.8° (Epoch: 18 March)

Date Brightness Start Highest point End Pass type
(mag) Time Alt. Az. Time Alt. Az. Time Alt. Az.
18 Mar 2.1 05:25:02 21° NW 05:26:47 41° N 05:29:49 10° E visible
19 Mar 3.2 04:28:18 27° NE 04:28:18 27° NE 04:30:12 10° ENE visible
19 Mar 1.2 06:01:01 10° WNW 06:04:12 76° NNE 06:07:24 10° ESE visible
20 Mar 1.7 05:03:51 38° NW 05:04:41 52° NNE 05:07:49 10° E visible
21 Mar 4.1 04:07:14 17° ENE 04:07:14 17° ENE 04:08:10 10° E visible
21 Mar 1.1 05:39:28 15° WNW 05:42:00 66° SSW 05:45:09 10° ESE visible
22 Mar 1.5 04:42:57 61° E 04:42:57 61° E 04:45:42 10° ESE visible
23 Mar 1.8 05:18:47 29° WSW 05:19:41 36° SSW 05:22:38 10° SE visible
24 Mar 3.6 04:22:33 17° SE 04:22:33 17° SE 04:23:24 10° ESE visible
24 Mar 3.4 05:55:34 10° WSW 05:56:34 11° SW 05:57:34 10° SSW visible
25 Mar 3.3 04:58:44 15° S 04:58:44 15° S 04:59:42 10° SSE visible
